Regional Weather Roundup
Issued by NWS Green Bay, WI

Home | Current Version | Previous Version | Text Only | Print | Product List | Glossary On
Versions: 1 2 3 4 5 6 7 8 9 10 11 12 13 14 15 16 17 18 19 20 21 22 23 24 25 26 27 28 29 30 31 32 33 34 35 36 37 38 39 40 41 42 43 44 45 46 47 48 49 50
000
ASUS43 KGRB 210859
RWRGRB

NORTH-CENTRAL AND NORTHEAST WISCONSIN REGIONAL WEATHER ROUNDUP
NATIONAL WEATHER SERVICE GREEN BAY WI
400 AM CDT TUE APR 21 2015

WIZ005-009-010>012-018-019-211000-
NORTH CENTRAL WISCONSIN

CITY           SKY/WX    TMP DP  RH WIND       PRES   REMARKS
IRONWOOD       CLOUDY    32  30  93 W16       29.28S
MANITOWISH WTR NOT AVBL
ARBOR VITAE    NOT AVBL
EAGLE RIVER    NOT AVBL
LAND O LAKES   NOT AVBL
RHINELANDER    LGT SNOW  32  29  88 W12       29.33S FOG
PHILLIPS       NOT AVBL
ANTIGO         NOT AVBL
TOMAHAWK       NOT AVBL
MERRILL        NOT AVBL
$$

WIZ013-073-211000-
NORTHEAST WISCONSIN

CITY           SKY/WX    TMP DP  RH WIND       PRES   REMARKS
IRON MOUNTAIN  CLOUDY    35  28  75 W12       29.29F
MARINETTE      CLOUDY    37  27  65 W9        29.36S
$$

WIZ017-030-035>037-045-211000-
CENTRAL WISCONSIN

CITY           SKY/WX    TMP DP  RH WIND       PRES   REMARKS
MEDFORD        NOT AVBL
WAUSAU         FLURRIES  34  30  85 W15       29.37F
MOSINEE        NOT AVBL
MARSHFIELD     FLURRIES  34  30  85 W14G25    29.42S
WISC RAPIDS    CLOUDY    35  29  78 W10G22    29.45S
STEVENS POINT  NOT AVBL
WAUPACA        NOT AVBL
SHAWANO        NOT AVBL
CLINTONVILLE   NOT AVBL
$$

WIZ038-039-048-051-211000-
FOX VALLEY

CITY           SKY/WX    TMP DP  RH WIND       PRES   REMARKS
NWS GREEN BAY  CLOUDY    38  31  76 W18       29.41S
APPLETON       NOT AVBL
OSHKOSH        CLOUDY    37  31  78 W7        29.44S
FOND DU LAC    LGT RAIN  39  31  72 W13G18    29.45F
$$

WIZ022-050-052-211000-
EAST CENTRAL WISCONSIN

CITY           SKY/WX    TMP DP  RH WIND       PRES   REMARKS
STURGEON BAY   CLOUDY    37  28  70 SW9       29.40S
MANITOWOC      NOT AVBL
SHEBOYGAN      CLOUDY    39  31  72 W15       29.45S
$$

LMZ563-521-522-541>543-211000-
LAKESHORE

STATION/POSITION TIME  TEMP    WIND        PRES    VSBY  WAVE
                       AIR SEA DIR/SP/G                  HT/PER
                 (UTC) (F)     (DEG/KT/KT) (MB)    (MI)  (FT/S)
SHEBOYGAN LKSHOR 0800   41     240/ 17/ 22  997.8F
KEWAUNEE LKSHORE 0800   39     250/  8/ 10  995.3F
NORTHPORT PIER   0800   38     230/  6/ 11  994.6F
SISTER BAY LKSHO 0800   39     250/ 16/ 18   N/A
CHAMBERS ISLAND  0800   38     210/  8/ 14  994.9S
MENOMINEE LKSHOR 0800   38     220/ 11/ 15  995.4F
$$



USA.gov is the U.S. government's official web portal to all federal, state and local government web resources and services.